Regional Weather Roundup
Issued by NWS Grand Forks, ND

Home | Current Version | Previous Version | Graphics & Text | Print | Product List | Glossary On
Versions: 1 2 3 4 5 6 7 8 9 10 11 12 13 14 15 16 17 18 19 20 21 22 23 24 25 26 27 28 29 30 31 32 33 34 35 36 37 38 39 40 41 42 43 44 45 46 47 48 49 50
000
ASUS43 KFGF 031310
RWRFGF
PRAIRIE TO PINES  WEATHER ROUNDUP
NATIONAL WEATHER SERVICE EASTERN NORTH DAKOTA/GRAND FORKS ND
800 AM CDT THU SEP 03 2015

 **SATELLITE DATA USED TO AUGMENT SKY COVER AT AUTOMATED STATIONS**
 *****  WEATHER ACROSS EASTERN NORTH DAKOTA  *****

CITY           SKY/WX    TMP DP  RH WIND       PRES   REMARKS
GRAND FORKS    CLOUDY    71  69  93 SE17      29.78R FOG
GRAND FRKS AFB CLOUDY    71  71  99 SE14      29.78R FOG
GRAND FRKS NWS   N/A     70 N/A N/A SE22        N/A
DEVILS LAKE    CLOUDY    72  64  78 SE15G21   29.72S
FARGO          CLOUDY    73  68  84 SE13      29.79S
WAHPETON ARPT  CLOUDY    70  64  83 SE14G20   29.82S
$$

 ***** WEATHER ACROSS CENTRAL AND WESTERN NORTH DAKOTA  *****

CITY           SKY/WX    TMP DP  RH WIND       PRES   REMARKS
BISMARCK       CLEAR     67  66  97 E9        29.69R
MINOT          CLOUDY    70  68  93 S3        29.68R FOG
JAMESTOWN      CLOUDY    73  70  90 SE14      29.74S FOG
MINOT AFB      FOG       70  70 100 SE6       29.67R VSB 1/4
GARRISON         N/A     69  30  23 SE6       29.67R
WILLISTON      PTCLDY    64  50  60 N10       29.69R
DICKINSON      CLEAR     63  54  72 S7        29.67R
HETTINGER      CLEAR     54  51  90 CALM      29.72R
$$

 *****  OTHER AIRPORT OBSERVATIONS IN OUR AREA  *****

CITY           SKY/WX    TMP DP  RH WIND       PRES   REMARKS
WALHALLA       FAIR      68  68 100 MISG      29.76S FOG
GRAFTON AIRPOR FOG       70  70 100 SE14      29.78S VSB 1/2
VALLEY CITY AR LGT RAIN  70  70 100 SE16      29.77S VSB 3/4
CANDO          NOT AVBL
CAVALIER APRT  FOG       68  68 100 SE8       29.77S VSB 1/2
GWINNER        CLOUDY    72  72 100 SE13      29.78S
SHEYENNE NWR     N/A     72  71  96 SE12      29.95S
ROLLA          CLOUDY    72  72 100 S13G21    29.74S FOG
 ***** THE ABOVE OBSERVATIONS ARE NON NWS ARE NOT QUALITY
       CONTROLLED AND MAY MIS-REPORT RAIN FOR SNOW...
$$

  *****  WEATHER ACROSS NORTHERN MINNESOTA  *****

CITY           SKY/WX    TMP DP  RH WIND       PRES   REMARKS
FLAG ISLAND    PTSUNNY   66  63  88 SE17G25   29.88S
WARROAD        CLOUDY    64  61  88 SE9       29.88S
ROSEAU         CLOUDY    66  63  88 SE12G17   29.86R HAZE
HALLOCK        CLOUDY    70  66  88 SE14      29.80R FOG
THF RVR FALLS  PTSUNNY   70  68  94 SE13      29.84S
BAUDETTE       CLOUDY    65  62  90 SE15      29.92R
WASKISH        CLOUDY    64  63  94 SE7       29.93R
CROOKSTON      CLOUDY    73  70  88 SE17      29.81S
STEPHEN NDAWN    N/A     70  70 100 SE9         N/A
GREENBUSH NDAW   N/A     68  66  94 SE12        N/A
$$
  *****  WEATHER ACROSS CENTRAL AND WEST MINNESOTA  *****

CITY           SKY/WX    TMP DP  RH WIND       PRES   REMARKS
FOSSTON        SUNNY     70  64  83 SE14G20   29.86S
BEMIDJI        CLOUDY    65  64  93 SE10      29.91S
PARK RAPIDS    PTSUNNY   68  64  87 SE9       29.90F
ELBOW LAKE     CLOUDY    69  68  99 SE10      29.84F FOG
WADENA         MOSUNNY   66  64  94 E10       29.89S
DETROIT LAKES  CLOUDY    70  64  83 SE16      29.87S
MOORHEAD       MOSUNNY   72  70  94 SE9       29.81S FOG
FERGUS FALLS   CLOUDY    72  72 100 SE12G17   29.83S FOG
MORRIS MN      FOG       70  70 100 SE13      29.84S VSB 1/4
STAPLES        CLOUDY    66  64  94 E7        29.91S
$$
  *****  WEATHER ELSEWHERE ACROSS MINNESOTA  *****

CITY           SKY/WX    TMP DP  RH WIND       PRES   REMARKS
DULUTH         DRZL/FOG  61  60  97 E9        29.99R VSB 1/4
INTRNTL FALLS  CLOUDY    63  61  93 SE12      29.96R
ELY            FOG       55  55 100 CALM      30.01R VSB 1/4
CLOQUET        FOG       61  59  94 E5        29.98S VSB<1/4
WHEATON        CLOUDY    68  66  94 SE13      29.83F FOG
BRAINERD       PTSUNNY   67  65  93 VRB3      29.93S
HIBBING        CLOUDY    61  60  97 SE8       29.99R FOG
ALEXANDRIA     FOG       67  67 100 E9        29.90S VSB 1/4
SAINT CLOUD    MOSUNNY   67  65  93 E7        29.91S
MINNEAPOLIS    CLOUDY    69  68  96 SE7       29.92R FOG
$$

  *****  WEATHER ACROSS SOUTH DAKOTA  *****

CITY           SKY/WX    TMP DP  RH WIND       PRES   REMARKS
SIOUX FALLS    SUNNY     70  67  90 SE7       29.84R
BROOKINGS      SUNNY     70  66  88 SE9       29.86R
WATERTOWN      SUNNY     70  67  90 SE9       29.82S
HURON          SUNNY     69  67  93 MISG      29.78R
SISSETON         N/A     70  70 100 S14G21    29.80S
ABERDEEN       SUNNY     71  68  90 S12       29.76R
MITCHELL       SUNNY     69  67  93 SE9       29.79R
PIERRE         CLEAR     67  62  84 CALM      29.73R
MOBRIDGE       CLEAR     69  64  84 SE9       29.69S
RAPID CITY     CLEAR     62  51  67 CALM      29.79S
$$

  *****  SOME WEATHER IN NEARBY STATES *****

CITY           SKY/WX    TMP DP  RH WIND       PRES   REMARKS
GLASGOW MT     PTCLDY    65  35  33 N10G17    29.76R
GREAT FALLS MT MOCLDY    53  36  52 N5        29.95R
CHEYENNE WY    MOCLDY    61  44  53 W5        30.08R
SCOTTSBLUFF NE PTCLDY    59  52  77 NW3       29.92R
OMAHA NE       MOSUNNY   75  68  78 S9        29.86R
DES MOINES IA  PTSUNNY   74  69  85 S6        29.91R
DAVENPORT IA   SUNNY     74  69  85 S6        29.97R
CHICAGO IL     MOSUNNY   75  68  78 SW7       29.96R
EAU CLAIRE WI  FOG       66  65  96 NE10      29.93S VSB 1/4
LA CROSSE WI   SUNNY     72  69  90 CALM      29.92R FOG
$$

  *****  SOME NATIONAL WEATHER *****

CITY           SKY/WX    TMP DP  RH WIND       PRES   REMARKS
LA GUARDIA NY  MOSUNNY   79  64  60 N5        29.88S
RALEIGH NC     PTSUNNY   73  69  87 CALM      29.97S
ATLANTA GA     CLOUDY    76  70  82 W6        30.03R
NEW ORLEANS LA CLOUDY    81  74  79 E6        29.99R
OKLAHOMA CITY  MOSUNNY   69  65  86 S5        29.99R
ALBUQUERQUE NM CLOUDY    64  47  53 SE3       30.17R
SALT LAKE CITY MOCLDY    75  41  29 S15       29.90R
LOS ANGELES CA CLOUDY    68  60  75 CALM      29.90F
BOISE ID       MOCLDY    56  43  61 W9        29.88R
SEATTLE WA     CLOUDY    53  50  89 S5        30.01R
$$

*** WEATHER ACROSS MANITOBA...SASKATCHEWAN AND ONTARIO ***
                ***ONTARIO***

CITY           SKY/WX    TMP DP  RH WIND       PRES   REMARKS
GERALDTON      SUNNY     61  59  94 CALM      30.06R
THUNDER BAY    MOSUNNY   54  54 100 W3        30.02R
SIOUX LOOKOUT  MOSUNNY   63  61  94 SE6       29.98S
TORONTO        CLOUDY    75  72  88 N8        29.96S
BIG TROUT LK   LGT RAIN  64  61  88 W6G17     29.87S
PICKLE LAKE    PTSUNNY   64  57  77 SW5       29.98S
DRYDEN         SUNNY     63  61  94 S8        29.96F
KENORA         MOSUNNY   66  64  94 SE13      29.91F
$$
                *** MANITOBA***

CITY           SKY/WX    TMP DP  RH WIND       PRES   REMARKS
BRANDON          N/A     73  72  94 SE9       29.71S
DAUPHIN        CLEAR     68  66  94 CALM      29.70R
ISLAND LAKE    NOT AVBL
PILOT MOUND      N/A     70  68  94 SE12        N/A
THE PAS        MOCLDY    61  59  94 SE13      29.70R
THOMPSON       PTSUNNY   59  57  94 E6        29.70S
WINNIPEG       CLOUDY    70  68  94 S16G22    29.78R
LYNN LAKE      PTCLDY    57  55  94 E6        29.67F
CHURCHILL      CLOUDY    48  48 100 VRB3      29.80R
$$
                ***SASKATCHEWAN***

CITY           SKY/WX    TMP DP  RH WIND       PRES   REMARKS
ESTEVAN        PTCLDY    61  59  94 NW8       29.69R
KINDERSLEY     MOCLDY    48  43  81 W7        29.88R
LLOYDMINSTER   CLOUDY    46  43  87 W14       29.85R
PRINCE ALBERT  MOCLDY    55  50  82 W8        29.74R
REGINA         PTCLDY    50  46  87 N5        29.75S
YORKTON        MOCLDY    61  55  82 N3        29.74S
N. BATTLEFORD  MOCLDY    46  45  93 NW8       29.84R
LA RONGE       PTCLDY    54  50  87 W8        29.66R
SASKATOON      MOCLDY    52  45  76 W6        29.80R
SWIFT CURRENT  CLEAR     50  45  81 W8        29.86R
$$
NOTE: THESE ARE AUTOMATED STATIONS WITH LIMITED QUALITY CONTROL
      "FAIR" INDICATES FEW OR NO CLOUDS BELOW 12,000 FEET WITH NO
      SIGNIFICANT WEATHER AND/OR OBSTRUCTIONS TO VISIBILITY.
      SKY/WX - SKY CONDITION AND SIGNIFICANT WEATHER.
      TMP - AIR TEMPERATURE.    DP   - DEWPOINT TEMPERATURE.
      RH  - RELATIVE HUMIDITY.  PRES - PRESSURE.
      HX  - HEAT INDEX.         WCI  - WIND CHILL INDEX.
$



USA.gov is the U.S. government's official web portal to all federal, state and local government web resources and services.